Eagle, AK

9:28 AM AKDT on May 23, 2017 (GMT -0800)
Eagle

Weather History for PAEG - September, 2013

Change the Weather History Date:

Sunday, September 22, 2013

  Actual Average (PABN) Record (PABN)
Temperature  
Mean Temperature 30 °F -  
Max Temperature 33 °F 40 °F 59 °F (2000)
Min Temperature 28 °F 28 °F 23 °F (2002)
Degree Days  
Heating Degree Days 34    
Moisture  
Dew Point 28 °F    
Average Humidity 88    
Maximum Humidity 93    
Minimum Humidity 78    
Precipitation  
Precipitation 0.13 in - - ()
Sea Level Pressure  
Sea Level Pressure 29.30 in    
Wind  
Wind Speed 5 mph (WNW)    
Max Wind Speed 12 mph    
Max Gust Speed -    
Visibility 4 miles    
Events Snow    
Averages and records for this station are not official NWS values.
T = Trace of Precipitation, MM = Missing Value Source: NWS Daily Summary

Daily Weather History Graph

Daily Weather History Graph

Search for Another Location

Airport or City:

Trip Planner

Search our weather history database for the weather conditions in past years. The results will help you decide how hot, cold, wet, or windy it might be!

Date:

Astronomy

Sep. 22, 2013 Rise Set
Actual Time 7:08 AM AKDT 7:23 PM AKDT
Civil Twilight 6:19 AM AKDT 8:12 PM AKDT
Nautical Twilight 5:19 AM AKDT 9:12 PM AKDT
Astronomical Twilight 4:09 AM AKDT 10:20 PM AKDT
Moon 7:42 PM AKDT (9/22) 12:10 PM AKDT (9/22)
Length of Visible Light 13h 53m
Length of Day
12h 15m
Waning Gibbous, 87% of the Moon is Illuminated
Sep 22
Waning Gibbous
Sep 26
Last Quarter
Oct 4
New
Oct 11
First Quarter
Oct 18
Full

Hourly Weather History & Observations

Time (AKDT) Temp. Windchill Dew Point Humidity Pressure Visibility Wind Dir Wind Speed Gust Speed Precip Events Conditions
12:53 AM 33.1 °F - 28.9 °F 85% 29.23 in 10.0 mi Calm Calm - N/A   Overcast
1:53 AM 33.1 °F 28.7 °F 28.9 °F 85% 29.23 in 10.0 mi West 4.6 mph - N/A   Overcast
2:53 AM 32.0 °F 28.7 °F 28.9 °F 88% 29.23 in 10.0 mi Variable 3.5 mph - N/A   Overcast
3:53 AM 32.0 °F 28.7 °F 28.0 °F 85% 29.24 in 10.0 mi West 3.5 mph - N/A   Overcast
4:28 AM 30.2 °F 25.4 °F 28.4 °F 93% 29.21 in 4.0 mi Variable 4.6 mph - 0.00 in Snow Light Snow
4:53 AM 30.9 °F - 28.0 °F 89% 29.25 in 7.0 mi Calm Calm - 0.00 in   Overcast
5:53 AM 30.9 °F 25.2 °F 28.0 °F 89% 29.25 in 4.0 mi West 5.8 mph - 0.00 in Snow Light Snow
6:53 AM 30.0 °F 25.2 °F 27.0 °F 88% 29.25 in 9.0 mi West 4.6 mph - 0.00 in   Overcast
7:03 AM 30.2 °F 25.4 °F 26.6 °F 86% 29.22 in 10.0 mi Variable 4.6 mph - 0.00 in Snow Light Snow
7:37 AM 30.2 °F 24.3 °F 26.6 °F 86% 29.23 in 2.0 mi West 5.8 mph - 0.00 in Snow Light Snow
7:53 AM 30.0 °F 25.2 °F 27.0 °F 88% 29.26 in 3.0 mi West 4.6 mph - 0.00 in Snow Light Snow
8:09 AM 30.2 °F 25.4 °F 26.6 °F 86% 29.23 in 1.8 mi Variable 4.6 mph - 0.00 in Snow Light Snow
8:53 AM 30.0 °F 24.1 °F 27.0 °F 88% 29.26 in 1.2 mi West 5.8 mph - 0.00 in Snow Light Snow
9:53 AM 30.0 °F 24.1 °F 28.0 °F 92% 29.27 in 1.5 mi West 5.8 mph - 0.01 in Snow Light Snow
10:08 AM 30.2 °F 24.3 °F 28.4 °F 93% 29.24 in 2.0 mi West 5.8 mph - 0.00 in Snow Light Snow
10:22 AM 30.2 °F 25.4 °F 28.4 °F 93% 29.24 in 3.0 mi West 4.6 mph - 0.01 in Snow Light Snow
10:53 AM 30.9 °F 27.5 °F 27.0 °F 85% 29.27 in 5.0 mi West 3.5 mph - 0.01 in Snow Light Snow
11:15 AM 30.2 °F 25.4 °F 28.4 °F 93% 29.24 in 2.0 mi West 4.6 mph - 0.00 in Snow Light Snow
11:34 AM 30.2 °F 24.3 °F 28.4 °F 93% 29.24 in 3.0 mi West 5.8 mph - 0.00 in Snow Light Snow
11:53 AM 30.9 °F 24.3 °F 27.0 °F 85% 29.28 in 5.0 mi West 6.9 mph - 0.00 in   Overcast
12:14 PM 32.0 °F 25.6 °F 28.4 °F 87% 29.25 in 10.0 mi WNW 6.9 mph - N/A   Overcast
12:53 PM 33.1 °F 28.7 °F 27.0 °F 78% 29.28 in 10.0 mi WNW 4.6 mph - N/A   Overcast
1:53 PM 33.1 °F 27.7 °F 27.0 °F 78% 29.28 in 10.0 mi WNW 5.8 mph - N/A   Overcast
2:41 PM 33.8 °F 28.6 °F 28.4 °F 81% 29.26 in 1.8 mi WNW 5.8 mph - 0.00 in Snow Light Snow
2:53 PM 33.1 °F 30.0 °F 28.9 °F 85% 29.29 in 1.0 mi Variable 3.5 mph - 0.00 in Snow Light Snow
3:53 PM 32.0 °F 25.6 °F 28.0 °F 85% 29.30 in 2.5 mi West 6.9 mph - 0.01 in Snow Light Snow
4:06 PM 32.0 °F 27.5 °F 28.4 °F 87% 29.27 in 1.5 mi WNW 4.6 mph - 0.01 in Snow Light Snow
4:23 PM 32.0 °F 26.4 °F 28.4 °F 87% 29.28 in 2.5 mi WNW 5.8 mph - 0.01 in Snow Light Snow
4:41 PM 32.0 °F 26.4 °F 28.4 °F 87% 29.28 in 1.8 mi WNW 5.8 mph - 0.01 in Snow Light Snow
4:53 PM 32.0 °F 26.4 °F 28.0 °F 85% 29.31 in 1.2 mi West 5.8 mph - 0.01 in Snow Light Snow
5:43 PM 30.2 °F 24.3 °F 28.4 °F 93% 29.30 in 0.8 mi West 5.8 mph - 0.02 in Snow Light Snow
5:50 PM 30.2 °F 23.4 °F 28.4 °F 93% 29.30 in 1.0 mi WNW 6.9 mph - 0.02 in Snow Light Snow
5:53 PM 30.9 °F 26.2 °F 28.0 °F 89% 29.33 in 1.0 mi West 4.6 mph - 0.02 in Snow Light Snow
6:48 PM 30.2 °F 23.4 °F 28.4 °F 93% 29.31 in 0.8 mi West 6.9 mph - 0.02 in Snow Light Snow
6:53 PM 30.9 °F 24.3 °F 28.0 °F 89% 29.34 in 0.8 mi West 6.9 mph - 0.02 in Snow Light Snow
7:01 PM 30.2 °F 23.4 °F 28.4 °F 93% 29.31 in 1.5 mi West 6.9 mph - 0.00 in Snow Light Snow
7:06 PM 30.2 °F 25.4 °F 28.4 °F 93% 29.31 in 2.0 mi West 4.6 mph - 0.00 in Snow Light Snow
7:16 PM 30.2 °F 24.3 °F 28.4 °F 93% 29.32 in 4.0 mi West 5.8 mph - 0.00 in Snow Light Snow
7:26 PM 30.2 °F 24.3 °F 28.4 °F 93% 29.32 in 2.0 mi West 5.8 mph - 0.00 in Snow Light Snow
7:34 PM 30.2 °F 24.3 °F 28.4 °F 93% 29.32 in 3.0 mi West 5.8 mph - 0.00 in Snow Light Snow
7:51 PM 30.2 °F 24.3 °F 28.4 °F 93% 29.32 in 2.0 mi West 5.8 mph - 0.01 in Snow Light Snow
7:53 PM 30.9 °F 27.5 °F 28.0 °F 89% 29.36 in 2.0 mi Variable 3.5 mph - 0.01 in Snow Light Snow
8:04 PM 30.2 °F 23.4 °F 28.4 °F 93% 29.33 in 1.5 mi West 6.9 mph - 0.00 in Snow Light Snow
8:25 PM 30.2 °F 24.3 °F 28.4 °F 93% 29.33 in 2.0 mi West 5.8 mph - 0.01 in Snow Light Snow
8:53 PM 30.0 °F 22.4 °F 27.0 °F 88% 29.38 in 2.0 mi West 8.1 mph - 0.01 in Snow Light Snow
9:14 PM 30.2 °F 24.3 °F 26.6 °F 86% 29.35 in 1.5 mi WNW 5.8 mph - 0.00 in Snow Light Snow
9:53 PM 30.0 °F 23.2 °F 27.0 °F 88% 29.40 in 2.0 mi WNW 6.9 mph - 0.01 in Snow Light Snow
10:10 PM 30.2 °F 23.4 °F 26.6 °F 86% 29.37 in 3.0 mi WNW 6.9 mph - 0.00 in Snow Light Snow
10:29 PM 30.2 °F 22.6 °F 26.6 °F 86% 29.37 in 2.5 mi West 8.1 mph - 0.01 in Snow Light Snow
10:36 PM 30.2 °F 22.6 °F 26.6 °F 86% 29.38 in 2.5 mi West 8.1 mph - 0.01 in Snow Light Snow
10:50 PM 30.2 °F 21.9 °F 26.6 °F 86% 29.38 in 2.5 mi West 9.2 mph - 0.01 in Snow Light Snow
10:53 PM 30.0 °F 23.2 °F 26.1 °F 85% 29.41 in 2.5 mi WNW 6.9 mph - 0.01 in Snow Light Snow
11:06 PM 30.2 °F 22.6 °F 26.6 °F 86% 29.39 in 3.0 mi West 8.1 mph - 0.00 in Snow Light Snow
11:28 PM 28.4 °F 19.7 °F 24.8 °F 86% 29.39 in 2.0 mi West 9.2 mph - 0.00 in Snow Light Snow
11:32 PM 28.4 °F 20.4 °F 24.8 °F 86% 29.40 in 1.8 mi West 8.1 mph - 0.00 in Snow Light Snow
11:49 PM 28.4 °F 18.5 °F 24.8 °F 86% 29.40 in 2.5 mi West 11.5 mph - 0.01 in Snow Light Snow
11:53 PM 28.9 °F 21.1 °F 25.0 °F 85% 29.44 in 3.0 mi West 8.1 mph - 0.01 in Snow Light Snow